Regional Weather Roundup
Issued by NWS

Home | Current Version | Previous Version | Text Only | Print | Product List | Glossary Off
Versions: 1 2 3 4 5 6 7 8 9 10 11 12 13 14 15 16 17 18 19 20 21 22 23 24 25 26 27 28 29 30 31 32 33 34 35 36 37 38 39 40 41 42 43 44 45 46 47 48 49 50

000
ASUS43 KBIS 251901
RWRND

NORTH DAKOTA REGIONAL WEATHER ROUNDUP
NATIONAL WEATHER SERVICE BISMARCK ND
100 PM CST SUN JAN 25 2015

NOTE: "FAIR" INDICATES FEW OR NO CLOUDS BELOW 12,000 FEET WITH NO
SIGNIFICANT WEATHER AND/OR OBSTRUCTIONS TO VISIBILITY.


NDZ001>003-009>011-017-252000-
NORTHWEST NORTH DAKOTA

CITY           SKY/WX    TMP DP  RH WIND       PRES   REMARKS
WILLISTON      CLOUDY    38  29  70 S5        29.92F
MINOT          CLOUDY    29  26  89 SE3       29.94F FOG
MINOT AFB      CLOUDY    27  27  99 S5        29.94F
$$

NDZ018>021-031>035-040>046-252000-
SOUTHWEST NORTH DAKOTA

CITY           SKY/WX    TMP DP  RH WIND       PRES   REMARKS
BISMARCK       CLOUDY    36  32  85 W9        29.99F
DICKINSON      CLOUDY    39  29  67 W5        29.93F
GARRISON         N/A     34  30  85 W8        29.97R
HETTINGER ARPT MOSUNNY   40  28  62 W7        29.96F
$$

NDZ004>008-012>016-024-026-027-054-252000-
NORTHEAST NORTH DAKOTA

CITY           SKY/WX    TMP DP  RH WIND       PRES   REMARKS
GRAND FORKS    PTSUNNY   23  11  60 CALM      30.04F
GRND FRKS AFB  MOSUNNY   22  12  64 VRB1      30.04F
DEVILS LAKE    CLOUDY    21  16  79 SW8       29.98F WCI  12
$$

NDZ022-023-025-028>030-036>039-047>053-252000-
SOUTHEAST NORTH DAKOTA

CITY           SKY/WX    TMP DP  RH WIND       PRES   REMARKS
FARGO          MOSUNNY   24  14  65 NW6       30.05R WCI  17
JAMESTOWN      CLOUDY    24  19  81 S5        30.00S WCI  18
$$



USA.gov is the U.S. government's official web portal to all federal, state and local government web resources and services.